| time (UTC) | temp C | wind direction | speed KPH | gust KPH | rain 1hr cm | rain 24hr cm | rain mn cm | humidity % | barometer mb |
| 20260906190015 | 28 | 37 | 1.6 | 8.0 | 0.00 | 0.00 | 0.00 | 76 | 1014.9 |
| 20260906184513 | 27 | 64 | 0.0 | 9.7 | 0.00 | 0.00 | 0.00 | 78 | 1015.1 |
| 20260906183016 | 27 | 58 | 0.0 | 9.7 | 0.00 | 0.00 | 0.00 | 78 | 1015.0 |
| 20260906181512 | 27 | 82 | 3.2 | 6.4 | 0.00 | 0.00 | 0.00 | 76 | 1015.0 |
| 20260906180010 | 27 | 59 | 3.2 | 8.0 | 0.00 | 0.00 | 0.00 | 76 | 1015.2 |
| 20260906174511 | 27 | 63 | 0.0 | 1.6 | 0.00 | 0.00 | 0.00 | 76 | 1015.6 |
| 20260906173008 | 27 | 233 | 0.0 | 6.4 | 0.00 | 0.00 | 0.00 | 75 | 1015.7 |
| 20260906171507 | 27 | 39 | 0.0 | 8.0 | 0.00 | 0.00 | 0.00 | 76 | 1015.8 |
| 20260906170008 | 27 | 267 | 0.0 | 4.8 | 0.00 | 0.00 | 0.00 | 76 | 1015.9 |
| 20260906164510 | 27 | 44 | 0.0 | 4.8 | 0.00 | 0.00 | 0.00 | 77 | 1016.0 |
| 20260906163005 | 27 | 49 | 0.0 | 4.8 | 0.00 | 0.00 | 0.00 | 77 | 1016.1 |
| 20260906161504 | 27 | 51 | 3.2 | 8.0 | 0.00 | 0.00 | 0.00 | 77 | 1016.1 |
| 20260906154557 | 26 | 326 | 0.0 | 1.6 | 0.00 | 0.00 | 0.00 | 80 | 1016.1 |
| 20260906153057 | 26 | 43 | 0.0 | 3.2 | 0.00 | 0.00 | 0.00 | 80 | 1016.0 |
| 20260906151609 | 26 | 44 | 0.0 | 4.8 | 0.00 | 0.00 | 0.00 | 82 | 1016.1 |
| 20260906150100 | 26 | 317 | 0.0 | 4.8 | 0.00 | 0.00 | 0.00 | 81 | 1016.0 |
| 20260906144556 | 25 | 294 | 1.6 | 6.4 | 0.00 | 0.00 | 0.00 | 83 | 1016.0 |
| 20260906143123 | 25 | 240 | 0.0 | 6.4 | 0.00 | 0.00 | 0.00 | 85 | 1016.1 |
| 20260906141554 | 24 | 229 | 0.0 | 3.2 | 0.00 | 0.00 | 0.00 | 86 | 1016.1 |
| 20260906140054 | 24 | 219 | 0.0 | 3.2 | 0.00 | 0.00 | 0.00 | 86 | 1016.1 |
| 20260906134559 | 24 | 253 | 1.6 | 4.8 | 0.00 | 0.00 | 0.00 | 85 | 1016.4 |
| 20260906133054 | -17 | 0.0 | 0.0 | 0.00 | 0.00 | 0.00 | 1016.3 | ||
| 20260906131549 | -17 | 0.0 | 0.0 | 0.00 | 0.00 | 0.00 | 1015.8 | ||
| 20260906130047 | -17 | 0.0 | 0.0 | 0.00 | 0.00 | 0.00 | 1015.3 | ||
| 20260906124543 | -17 | 0.0 | 0.0 | 0.00 | 0.00 | 0.00 | 1015.2 | ||
| 20260906123105 | -17 | 0.0 | 0.0 | 0.00 | 0.00 | 0.00 | 1015.1 | ||
| 20260906121528 | -17 | 0.0 | 0.0 | 0.00 | 0.00 | 0.00 | 1014.9 | ||
| 20260906120025 | -17 | 0.0 | 0.0 | 0.00 | 0.00 | 0.00 | 1014.8 | ||
| 20260906114520 | -17 | 0.0 | 0.0 | 0.00 | 0.00 | 0.00 | 1014.7 | ||
| 20260906113017 | -17 | 0.0 | 0.0 | 0.00 | 0.00 | 0.00 | 1014.6 | ||
| 20260906111523 | -17 | 0.0 | 0.0 | 0.00 | 0.00 | 0.00 | 1014.4 | ||
| 20260906110006 | -17 | 0.0 | 0.0 | 0.00 | 0.00 | 0.00 | 1014.3 | ||
| 20260906104502 | -17 | 0.0 | 0.0 | 0.00 | 0.00 | 0.00 | 1014.4 | ||
| 20260906103058 | -17 | 0.0 | 0.0 | 0.00 | 0.00 | 0.00 | 1014.4 | ||
| 20260906101555 | -17 | 82 | 0.0 | 1.6 | 0.00 | 0.00 | 0.00 | 1014.3 | |
| 20260906100055 | 24 | 86 | 0.0 | 4.8 | 0.00 | 0.00 | 0.00 | 84 | 1014.3 |
| 20260906094604 | 23 | 84 | 1.6 | 3.2 | 0.00 | 0.00 | 0.00 | 85 | 1014.2 |
| 20260906093052 | 24 | 82 | 1.6 | 4.8 | 0.00 | 0.00 | 0.00 | 85 | 1014.2 |
| 20260906091602 | 24 | 84 | 3.2 | 6.4 | 0.00 | 0.00 | 0.00 | 85 | 1014.2 |
| 20260906090052 | 24 | 75 | 4.8 | 6.4 | 0.00 | 0.00 | 0.00 | 85 | 1014.1 |
| 20260906084550 | 25 | 72 | 4.8 | 9.7 | 0.00 | 0.00 | 0.00 | 82 | 1014.3 |
| 20260906083045 | 25 | 53 | 1.6 | 6.4 | 0.00 | 0.00 | 0.00 | 82 | 1014.3 |
| 20260906081545 | 25 | 72 | 3.2 | 6.4 | 0.00 | 0.00 | 0.00 | 82 | 1014.1 |
| 20260906080045 | 25 | 72 | 3.2 | 6.4 | 0.00 | 0.00 | 0.00 | 82 | 1014.1 |
| 20260906074548 | 25 | 67 | 3.2 | 8.0 | 0.00 | 0.00 | 0.00 | 82 | 1014.1 |
| 20260906073043 | 25 | 96 | 1.6 | 8.0 | 0.00 | 0.00 | 0.00 | 81 | 1014.0 |
| 20260906071540 | 25 | 77 | 3.2 | 6.4 | 0.00 | 0.00 | 0.00 | 82 | 1014.0 |
| 20260906070040 | 25 | 94 | 4.8 | 8.0 | 0.00 | 0.00 | 0.00 | 82 | 1013.8 |
| 20260906064537 | 25 | 86 | 3.2 | 6.4 | 0.00 | 0.00 | 0.00 | 81 | 1014.0 |
| 20260906063034 | 25 | 81 | 6.4 | 9.7 | 0.00 | 0.00 | 0.00 | 80 | 1014.1 |
| 20260906061533 | 26 | 83 | 3.2 | 8.0 | 0.00 | 0.00 | 0.00 | 80 | 1014.1 |
| 20260906060030 | 26 | 72 | 4.8 | 9.7 | 0.00 | 0.00 | 0.00 | 78 | 1014.2 |
| 20260906054538 | 26 | 85 | 3.2 | 4.8 | 0.00 | 0.00 | 0.00 | 78 | 1014.1 |
| 20260906053028 | 26 | 84 | 3.2 | 4.8 | 0.00 | 0.00 | 0.00 | 78 | 1014.1 |
| 20260906051528 | 26 | 85 | 1.6 | 3.2 | 0.00 | 0.00 | 0.00 | 79 | 1014.0 |
| 20260906050023 | 26 | 84 | 3.2 | 4.8 | 0.00 | 0.00 | 0.00 | 80 | 1014.0 |
| 20260906044523 | 26 | 84 | 0.0 | 1.6 | 0.00 | 0.00 | 0.00 | 80 | 1013.9 |
| 20260906043029 | 26 | 84 | 1.6 | 4.8 | 0.00 | 0.00 | 0.00 | 80 | 1014.1 |
| 20260906041522 | 26 | 82 | 3.2 | 4.8 | 0.00 | 0.00 | 0.00 | 79 | 1014.1 |
| 20260906040021 | 27 | 82 | 3.2 | 6.4 | 0.00 | 0.00 | 0.00 | 78 | 1014.1 |
| 20260906034521 | 27 | 77 | 4.8 | 8.0 | 0.00 | 0.00 | 0.00 | 76 | 1014.1 |
| 20260906033024 | 27 | 85 | 3.2 | 4.8 | 0.00 | 0.00 | 0.00 | 76 | 1014.1 |
| 20260906031520 | 27 | 85 | 3.2 | 4.8 | 0.00 | 0.00 | 0.00 | 76 | 1014.0 |
| 20260906024510 | 27 | 82 | 1.6 | 4.8 | 0.00 | 0.00 | 0.00 | 76 | 1013.2 |
| 20260906023009 | 28 | 80 | 3.2 | 6.4 | 0.00 | 0.00 | 0.00 | 75 | 1012.8 |
| 20260906021509 | 28 | 79 | 1.6 | 4.8 | 0.00 | 0.00 | 0.00 | 73 | 1012.7 |
| 20260906020011 | 29 | 87 | 1.6 | 3.2 | 0.00 | 0.00 | 0.00 | 72 | 1012.4 |
| 20260906014508 | 29 | 120 | 0.0 | 1.6 | 0.00 | 0.00 | 0.00 | 71 | 1012.1 |
| 20260906013008 | 30 | 120 | 0.0 | 1.6 | 0.00 | 0.00 | 0.00 | 71 | 1012.1 |
| 20260906011508 | 30 | 120 | 1.6 | 3.2 | 0.00 | 0.00 | 0.00 | 70 | 1011.9 |
| 20260906010007 | 30 | 120 | 0.0 | 0.0 | 0.00 | 0.00 | 0.00 | 70 | 1011.8 |
| 20260906004507 | 31 | 120 | 0.0 | 1.6 | 0.00 | 0.00 | 0.00 | 69 | 1011.7 |
| 20260906003006 | 31 | 115 | 0.0 | 3.2 | 0.00 | 0.00 | 0.00 | 67 | 1011.8 |
| 20260906001514 | 32 | 153 | 0.0 | 3.2 | 0.00 | 0.00 | 0.00 | 64 | 1011.8 |
| 20260906000013 | 32 | 201 | 1.6 | 6.4 | 0.00 | 0.00 | 0.00 | 63 | 1011.9 |
| 20260905234506 | 33 | 184 | 3.2 | 8.0 | 0.00 | 0.00 | 0.00 | 62 | 1011.9 |
| 20260905233003 | 33 | 186 | 3.2 | 12.9 | 0.00 | 0.00 | 0.00 | 61 | 1011.8 |
| 20260905231503 | 33 | 164 | 4.8 | 14.5 | 0.00 | 0.00 | 0.00 | 60 | 1011.6 |
| 20260905230002 | 33 | 133 | 1.6 | 11.3 | 0.00 | 0.00 | 0.00 | 60 | 1011.6 |
| 20260905224501 | 33 | 226 | 9.7 | 17.7 | 0.00 | 0.00 | 0.00 | 58 | 1011.5 |
| 20260905223100 | 34 | 217 | 12.9 | 24.1 | 0.00 | 0.00 | 0.00 | 56 | 1011.5 |
| 20260905221603 | 34 | 173 | 6.4 | 24.1 | 0.00 | 0.00 | 0.00 | 56 | 1011.4 |
| 20260905214601 | 35 | 115 | 6.4 | 17.7 | 0.00 | 0.00 | 0.00 | 55 | 1011.6 |
| 20260905213055 | 35 | 110 | 9.7 | 19.3 | 0.00 | 0.00 | 0.00 | 57 | 1011.9 |
| 20260905211553 | 34 | 95 | 6.4 | 20.9 | 0.00 | 0.00 | 0.00 | 60 | 1011.9 |
| 20260905210058 | 34 | 84 | 4.8 | 24.1 | 0.00 | 0.00 | 0.00 | 61 | 1012.2 |
| 20260905204550 | 33 | 108 | 16.1 | 30.6 | 0.00 | 0.00 | 0.00 | 61 | 1012.4 |
| 20260905203044 | 33 | 102 | 12.9 | 25.7 | 0.00 | 0.00 | 0.00 | 67 | 1012.8 |
| 20260905201541 | 33 | 94 | 16.1 | 27.4 | 0.00 | 0.00 | 0.00 | 66 | 1013.0 |
| 20260905200041 | 32 | 58 | 14.5 | 24.1 | 0.00 | 0.00 | 0.00 | 69 | 1013.3 |
| 20260905194539 | 32 | 33 | 14.5 | 25.7 | 0.00 | 0.00 | 0.00 | 69 | 1013.8 |
| 20260905193036 | 32 | 61 | 14.5 | 29.0 | 0.00 | 0.00 | 0.00 | 68 | 1014.0 |
| 20260905191535 | 32 | 34 | 17.7 | 27.4 | 0.00 | 0.00 | 0.00 | 66 | 1014.2 |